Regional Weather Roundup
Issued by NWS

Home | Current Version | Previous Version | Graphics & Text | Print | Product List | Glossary On
Versions: 1 2 3 4 5 6 7 8 9 10 11 12 13 14 15 16 17 18 19 20 21 22 23 24 25 26 27 28 29 30 31 32 33 34 35 36 37 38 39 40 41 42 43 44 45 46 47 48 49 50
000
ASUS43 KMKX 300700
RWRWI

WISCONSIN REGIONAL WEATHER ROUNDUP
NATIONAL WEATHER SERVICE MILWAUKEE/SULLIVAN WI
200 AM CDT TUE JUN 30 2015

NOTE: "FAIR" INDICATES FEW OR NO CLOUDS BELOW 12,000 FEET WITH NO
SIGNIFICANT WEATHER AND/OR OBSTRUCTIONS TO VISIBILITY.

WIZ001-002-006>008-014>016-023>028-300800-
NORTHWEST WISCONSIN

CITY           SKY/WX    TMP DP  RH WIND       PRES   REMARKS
SUPERIOR ARPT  CLEAR     56  55  97 CALM      29.87R
ASHLAND        CLOUDY    59  59 100 NE5       29.87R
HAYWARD        FOG       56  56 100 CALM      29.86R VSB 3/4
SIREN          PTCLDY    57  56  97 CALM      29.86R FOG
CUMBERLAND     CLOUDY    59  57  94 CALM      29.85F FOG
RICE LAKE        N/A     57  56  95 CALM      29.86S FOG
CHETEK         MOCLDY    58  58 100 W3        29.85R FOG
LADYSMITH      CLEAR     60  59  96 N6        29.85S
EAU CLAIRE     NOT AVBL
MENOMONIE      CLEAR     60  59  98 NW3       29.85R FOG
NEW RICHMOND   CLOUDY    59  59 100 CALM      29.85S FOG
OSCEOLA        CLOUDY    60  60 100 CALM      29.87S FOG
$$

WIZ003>005-009-010-017-018-300800-
NORTH CENTRAL WISCONSIN

CITY           SKY/WX    TMP DP  RH WIND       PRES   REMARKS
MANITOWISH WTR CLOUDY    58  58 100 N5        29.84S
ARBOR VITAE    CLOUDY    59  57  92 N7        29.84R
WOODRUFF       CLOUDY    59  57  92 N7        29.84R
RHINELANDER    PTCLDY    59  57  93 N3        29.83S
EAGLE RIVER    MOCLDY    58  58  99 N5        29.82S
LAND O LAKES   CLOUDY    59  58  97 N8G16     29.84S
PHILLIPS       PTCLDY    58  58 100 N5        29.83S
TOMAHAWK       CLOUDY    57  56  97 NW3       29.83S FOG
MEDFORD        MOCLDY    58  58  98 N5        29.82F FOG
MERRILL        PTCLDY    58  58 100 N7        29.82S
$$

WIZ029-030-035-036-043>047-300800-
CENTRAL WISCONSIN

CITY           SKY/WX    TMP DP  RH WIND       PRES   REMARKS
WAUSAU         MOCLDY    60  58  92 NW8       29.80R FOG
MOSINEE        NOT AVBL
MARSHFIELD     MOCLDY    59  55  87 NW6       29.81F FOG
STEVENS POINT  PTCLDY    57  56  97 NW3       29.80F FOG
WAUPACA        CLEAR     60  60  99 W6        29.78S
WAUTOMA        NOT AVBL
WISC RAPIDS    PTCLDY    57  55  93 W5        29.81S
CAMP DOUGLAS   FOG       54  54 100 W5        29.81S VSB 1/2
$$

WIZ011>013-019>022-031-037>040-048>050-300800-
NORTHEAST WISCONSIN

CITY           SKY/WX    TMP DP  RH WIND       PRES   REMARKS
ANTIGO         MOCLDY    56  56 100 NW5       29.81S FOG
SHAWANO        PTCLDY    61  59  94 NW3       29.77S FOG
OCONTO         CLOUDY    62  62 100 N6        29.75S
STURGEON BAY   CLOUDY    63  57  82 E6        29.78S
GREEN BAY      CLOUDY    63  61  93 W6        29.76S FOG
MANITOWOC      NOT AVBL
APPLETON       CLEAR     59  59 100 W6        29.77S FOG
CLINTONVILLE   PTCLDY   N/A N/A N/A NW6       29.77S
OSHKOSH        PTCLDY    61  57  87 W6        29.77S
$$

WIZ032>034-041-042-053>061-300800-
SOUTHWEST WISCONSIN

CITY           SKY/WX    TMP DP  RH WIND       PRES   REMARKS
LA CROSSE      CLEAR     60  59  96 N6        29.82S FOG
SPARTA         FOG       54  53  97 CALM      29.83S VSB 1/4
VIROQUA        CLEAR     59  59 100 W5        29.83S
BOSCOBEL       FOG       59  58  96 CALM      29.81F VSB 1/4
PRAIRIE DU CHI CLEAR     60  59  96 CALM      29.82R FOG
PLATTEVILLE    PTCLDY    60  60  99 W3        29.82S
$$

WIZ056-057-062-063-064-067-068-300800-
SOUTH CENTRAL WISCONSIN

CITY           SKY/WX    TMP DP  RH WIND       PRES   REMARKS
REEDSBURG      CLEAR     58  58 100 CALM      29.80S
BARABOO/DELLS  CLEAR     57  56  94 W3        29.81S FOG
LONE ROCK      PTCLDY    59  58  96 CALM      29.82S FOG
MINERAL POINT  CLEAR     61  59  94 CALM      29.82S FOG
MADISON        PTCLDY    61  58  90 CALM      29.79F
MIDDLETON      PTCLDY    61  60  98 NW3       29.81F
WATERTOWN      MOCLDY    60  60 100 CALM      29.79S
MONROE         PTCLDY    61  61 100 NW6       29.80F
JANESVILLE     MOCLDY    61  59  94 W3        29.79S
$$

WIZ051-052-058>065-066-070>072-300800-
SOUTHEAST WISCONSIN

CITY           SKY/WX    TMP DP  RH WIND       PRES   REMARKS
MILWAUKEE      CLOUDY    63  61  93 SW3       29.77S FOG
WAUKESHA       CLOUDY    61  61 100 CALM      29.79S
MILWAUKEE/TIMM CLOUDY    63  59  88 CALM      29.78S
RACINE         CLOUDY    63  60  90 CALM      29.79S FOG
BURLINGTON     MOCLDY    59  59  99 W3        29.78S
KENOSHA        CLOUDY    62  60  93 CALM      29.77F FOG
FOND DU LAC    PTCLDY    61  58  90 W5        29.78S
SHEBOYGAN      CLOUDY    62  60  93 S5        29.77S
WEST BEND      MOCLDY    63  57  82 W8        29.78S
JUNEAU         MOCLDY    61  59  94 CALM      29.80S
$$

LSZ147-162-300800-
LAKE SUPERIOR

STATION/POSITION TIME  TEMP    WIND        PRES    WAVE
                       AIR SEA DIR/SP/G            HT/PER
                 (UTC) (F)     (DEG/KT/KT) (MB)    (FT/S)
W MID LAKE BUOY  0550   45 38   20/ 12/ 12 1011.5R   0
DEVILS ISLAND    0600   58      60/  9/  9 1011.4R
SAXON HARBOR     0640   61      CALM  /  4 1011.2R
$$

LMZ867-665-643>646-300800-
LAKE MICHIGAN

STATION/POSITION TIME  TEMP    WIND        PRES    WAVE
                       AIR SEA DIR/SP/G            HT/PER
                 (UTC) (F)     (DEG/KT/KT) (MB)    (FT/S)
CHAMBERS ISLAND  0600   63      CALM  /  1 1007.8F
S GREEN BAY BUOY 0600   68 71  330/  6/  8 1008.6
N MID LAKE BUOY  0550   53 53  200/  8/ 10 1008.4R   1/ 3
NORTHPORT PIER   0600   62     100/  3/  3 1008.1R
SISTER BAY       0614   61        CALM       N/A
ALGOMA LAKESHORE 0640          200/  7/  8   N/A
KEWAUNEE LAKESHO 0600   59     170/  5/  6 1007.1F
SHEBOYGAN LAKESH 0600   61     200/  9/ 10 1008.2R
PORT WASHINGTON  0600   61     180/  7/  8 1008.8
ATWATER BUOY     0600   60 59  160/  8/  8 1009.7R
MILWAUKEE LAKESH 0600   61     140/  4/  5   N/A
KENOSHA   LAKESH 0500   62     180/  7/  9 1008.5S
$$

TC  - TEMPERATURE IN CELSIUS
VSB - VISIBILITY IN STATUTE MILES
WCI - WIND CHILL INDEX
HX  - HEAT INDEX



USA.gov is the U.S. government's official web portal to all federal, state and local government web resources and services.